Retour au catalogue

COSMOS 2251 DEB

ActifLEO
NORAD 35025·DEBRIS·🇷🇺 Russia

Lancé Jun 16, 1993 depuis Plesetsk Cosmodrome

Loading…

Prochains Passages (prochaines 24 heures)

TLE

FraisSource: Space-Track

Époque: Sep 13, 2026, 09:22 UTC

1 35025U 93036AGN 26256.39097127  .00001471  00000-0  21757-3 0  9993
2 35025  73.9343 244.1709 0080195  94.1655 266.8688 14.74032818926881

Suivez COSMOS 2251 DEB en temps réel avec AllMySat

Download on the App Store